User: anonymous
Location: Cincinnati Observatory Center
(39.1389°N, 84.4225°W)
Time: 06:43:11
(UTC-04:00)
Language:

COSMOS 2428 - Orbit

View from above orbital plane
View from above orbital plane
View from above satellite
View from above satellite

Ground track
Ground track

The orbit data is extracted from the following two-line orbital elements,

1 31792U 07029A   14210.19214392  .00000270  00000-0  17232-3 0  8502
2 31792 070.9618 101.5153 0005919 068.7987 089.9722 14.12381416365248
Epoch (UTC): 29 July 2014 04:36:41
Eccentricity: 0.0005919
inclination: 70.9618°
perigee height: 847 km
apogee height: 855 km
right ascension of ascending node: 101.5153°
argument of perigee: 68.7987°
revolutions per day: 14.12381416
mean anomaly at epoch: 89.9722°
orbit number at epoch: 36524

The dashed part of the orbit path shows where the satellite is in the earth's shadow,  

DLR